Location: Anglesey
(53.1800°N, 4.2200°W)
Time: 06:10:06
(UTC+00:00)

Envisat - Pass Details

Date: 16 October 2017
Orbit: 764 x 766 km, 98.2° (Epoch: 11 December)

Event Time Altitude Azimuth Distance (km) Brightness Sun altitude
Exits shadow 22:25:51 15° 253° (WSW) 1,957 5.4 -35.9°
Maximum altitude 22:27:17 17° 273° (W) 1,866 5.4 -36.1°
Drops below altitude 10° 22:30:35 10° 314° (NW) 2,317 6.2 -36.5°
Sets 22:33:44 0° 334° (NNW) 3,249 7.1 -36.8°
